• Join FlightAware (Why Join?)
  • Login
  • US Flag 
Trick or treat! (Boo!!) 
11:49AM EDT


 

Airport Tracker/Info


-or-


 

Live Flight TrackerFlight Track Log ✈ KAP66 ✈ 07-May-2013 ✈ KACK - KBOS

Flight Track Log - Related Links

Times and Time Zones

All times are in EDT time to prevent confusion due to time zone crossing. See the KAP66 flight status page for this flight to view local times or setup timezone preferences in your user account.

Time Position Orientation Groundspeed Altitude Reporting Facility
EDT Latitude Longitude Course Direction KTS MPH feet Rate Location/Type
09:57AM 41.4190 -70.1857 323° Northwest  Level FlightAware Approximate
09:58AM 41.4453 -70.2120 323° Northwest  Level FlightAware Approximate
09:59AM 41.4734 -70.2347 330° Northwest  Level FlightAware Approximate
10:00AM 41.5019 -70.2567 330° Northwest  Level FlightAware Approximate
10:01AM 41.5303 -70.2787 330° Northwest  Level FlightAware Approximate
10:02AM 41.5588 -70.3008 330° Northwest  Level FlightAware Approximate
10:03AM 41.5873 -70.3228 330° Northwest  Level FlightAware Approximate
10:04AM 41.6157 -70.3449 330° Northwest  Level FlightAware Approximate
10:05AM 41.6442 -70.3670 330° Northwest  Level FlightAware Approximate
10:06AM 41.6726 -70.3891 330° Northwest  Level FlightAware Approximate
10:07AM 41.7010 -70.4112 330° Northwest  Level FlightAware Approximate
10:07AM 41.7833 -70.5000 330° Northwest 168 193 4,000  Level KA90
10:07AM 41.8000 -70.5167 323° Northwest 170 196 4,000  Level KA90
10:08AM 41.7295 -70.4334 330° Northwest  Level FlightAware Approximate
10:08AM 41.8333 -70.5500 323° Northwest 167 192 4,000  Level KA90
10:09AM 41.7579 -70.4555 330° Northwest  Level FlightAware Approximate
10:09AM 41.8833 -70.5500 360° North 168 193 4,000  Level KA90
10:10AM 41.7863 -70.4777 330° Northwest  Level FlightAware Approximate
10:10AM 41.9333 -70.5500 360° North 167 192 4,000  Level KA90
10:11AM 41.8148 -70.4999 330° Northwest  Level FlightAware Approximate
10:11AM 41.9833 -70.5667 346° North 164 189 4,000  Level KA90
10:12AM 41.8432 -70.5221 330° Northwest  Level FlightAware Approximate
10:12AM 42.0333 -70.5667 360° North 167 192 4,000  Level KA90
10:13AM 42.0833 -70.5667 360° North 167 192 4,000  Level KA90
10:14AM 42.1333 -70.5667 360° North 167 192 4,000 -120 Level KA90
10:15AM 42.1833 -70.5833 346° North 175 201 3,800 -300 Descending KA90
10:16AM 42.2333 -70.6000 346° North 180 207 3,400 -420 Descending KA90
10:17AM 42.2667 -70.6167 340° North 182 209 3,100 -240 Descending KA90
10:18AM 42.3167 -70.6333 346° North 179 206 3,000 -60 Descending KA90
10:19AM 42.3667 -70.6500 346° North 173 199 3,000 -120 Level KA90
10:20AM 42.3833 -70.7000 294° West 160 184 2,800 -360 Descending KA90
10:21AM 42.3833 -70.7667 270° West 169 194 2,300 -540 Descending KA90
10:22AM 42.3833 -70.8333 270° West 172 198 1,900 -480 Descending KA90
10:23AM 42.3667 -70.9000 251° West 173 199 1,400 -600 Descending KA90
10:24AM 42.3667 -70.9500 270° West 149 171 700 -720 Descending KA90
10:26AM 42.3500 -71.0000 270° West  Level FlightAware Approximate
10:33AM 42.3630 -71.0064 270° West  Level Estimated